Lid_Strength_Index
1 1 1 1 1 1 1 1 1 0 -0 0 -0 -1 -1 -1 -1 1 4 1 0 -1 -1 1 1 2 2 4 4 4 11 12 11 10 9 6 7 5 4 6 5 5 6 4 3
1 1 1 1 1 1 1 1 1 1 0 -0 -0 0 -1 -1 1 3 -1 -2 -1 -1 2 3 4 3 5 6 6 8 11 11 7 7 7 6 6 6 6 6 6 5 4 4 4
1 1 1 1 1 1 1 1 1 1 0 1 1 -0 -1 -0 4 4 -2 -2 -2 -1 1 2 2 4 7 6 7 7 11 8 7 6 5 6 6 5 7 8 6 6 5 4 4
0 1 1 1 1 1 1 1 1 1 1 1 1 1 -0 2 11 2 -0 -0 -1 -0 1 3 4 6 8 9 6 9 7 7 6 5 6 7 6 7 6 6 4 4 4 4 4
0 0 1 1 1 1 1 1 1 2 1 1 1 1 2 6 6 1 1 2 1 1 3 4 6 6 9 8 7 9 8 6 6 5 6 5 7 7 6 4 4 4 4 4 4
-0 0 0 0 1 1 1 1 1 1 2 1 1 1 4 10 3 2 2 2 3 3 3 3 5 5 6 7 8 7 7 7 6 6 6 7 7 6 6 4 4 4 4 5 4
-0 -0 -0 0 0 0 1 1 1 1 1 2 1 3 6 8 4 3 3 3 3 4 6 3 3 5 5 8 5 6 9 8 8 7 7 6 9 8 5 5 5 5 6 5 5
-0 -0 -0 -1 0 -0 1 1 1 1 1 2 1 3 9 3 3 4 4 5 4 4 4 4 3 4 6 6 8 10 9 13 9 7 7 7 12 7 5 6 6 6 8 6 5
-1 -1 -1 -1 -0 -0 0 1 1 0 1 2 3 5 9 2 5 4 4 6 5 4 4 3 4 6 6 10 12 11 15 13 12 7 8 8 11 7 5 6 7 8 8 6 6
-1 -1 -1 -1 -0 -0 1 1 1 1 2 2 4 8 7 8 5 5 4 4 6 5 6 6 6 10 10 12 17 15 15 13 13 10 9 10 10 8 6 7 8 7 7 7 6
-1 -1 -1 -0 -0 0 1 3 6 7 6 8 8 9 7 5 5 6 5 6 6 7 10 7 11 14 12 10 10 11 12 13 11 8 10 10 10 8 7 6 7 7 7 7 7
-1 -1 -1 -0 -0 0 1 6 5 5 10 6 7 7 6 5 9 7 4 8 8 11 9 10 13 9 8 9 10 11 13 13 11 8 9 10 10 8 8 7 7 7 7 7 7
-1 -1 -1 -0 0 1 3 4 3 4 10 9 7 8 7 6 9 7 6 7 9 11 11 12 10 8 9 10 12 11 14 13 14 10 9 11 12 10 8 7 6 6 7 7 7
-1 -1 -0 0 3 3 4 2 2 3 14 13 11 9 7 7 10 5 4 6 9 11 10 10 8 9 10 11 10 14 10 11 12 14 17 10 18 12 9 8 7 8 8 7 7
-1 -1 -0 1 2 4 3 3 3 6 20 11 11 6 7 9 8 8 4 6 10 10 9 12 10 11 12 11 10 13 9 11 12 14 15 14 16 13 10 10 9 10 9 7 7
-1 -1 -0 1 2 2 2 3 5 14 19 13 11 11 10 9 9 7 7 5 5 9 9 10 7 9 10 9 9 9 11 12 13 14 19 15 15 15 12 10 10 9 8 7 7
-1 -1 0 1 5 2 3 6 15 18 12 14 13 11 11 11 10 9 10 10 12 15 15 11 12 9 8 12 9 10 14 19 20 20 20 12 15 13 11 10 9 9 8 7 7
-0 -0 0 2 2 3 5 11 18 13 14 11 11 11 13 11 11 11 11 13 9 11 14 16 17 12 9 11 13 13 14 19 23 22 18 12 17 13 10 9 8 8 7 7 8
-0 1 2 2 2 3 8 16 15 13 12 12 12 14 14 11 11 11 11 12 11 10 15 16 16 10 9 9 10 13 16 12 16 14 17 15 14 12 10 10 9 8 7 7 8
2 3 3 2 2 5 11 13 13 11 10 11 15 12 15 13 13 12 12 9 10 8 8 12 17 11 10 9 9 12 10 17 15 20 21 17 15 14 12 11 10 9 8 8 7
3 7 3 1 3 8 14 13 12 10 10 12 12 13 12 12 12 12 12 9 8 9 9 11 13 14 12 13 14 14 15 14 13 15 19 20 17 11 11 10 10 9 8 8 8
5 10 2 2 9 10 12 12 11 11 9 10 9 11 11 10 12 12 12 10 7 8 12 11 13 17 15 11 9 11 13 13 16 18 16 16 16 10 10 10 9 9 7 7 7
7 7 2 3 12 12 11 13 11 11 10 10 11 9 8 10 13 11 10 7 7 8 11 11 14 18 17 14 12 13 12 12 12 13 16 17 16 10 10 10 10 9 8 7 7
6 11 7 6 7 10 12 14 13 10 11 8 9 8 9 10 10 11 11 8 7 8 8 8 12 15 19 16 13 15 13 12 13 17 16 15 15 12 11 10 10 9 8 7 7
6 9 7 11 10 10 11 12 13 13 10 8 10 9 10 11 11 11 10 9 8 7 9 10 15 14 13 12 12 13 13 12 13 13 16 14 13 12 10 10 10 9 8 8 8
8 8 7 9 8 10 10 13 13 11 10 11 11 10 9 10 10 12 10 10 11 9 10 10 14 12 13 11 12 14 12 12 12 12 12 12 12 9 9 9 10 10 9 8 8
4 4 6 8 9 11 11 12 12 11 10 9 9 10 10 8 7 7 7 7 8 9 10 11 12 14 15 12 12 16 13 12 11 10 11 14 10 9 10 9 9 9 8 8 8